Kansas City International, MO

8:14 PM CDT on October 19, 2019 (GMT -0500)
Kansas City International

Weather History for KMCI - September, 2019

Change the Weather History Date:

Wednesday, September 18, 2019

  Actual Average Record
Temperature  
Mean Temperature 81 °F 67 °F  
Max Temperature 91 °F 78 °F 96 °F (1925)
Min Temperature 70 °F 56 °F 38 °F (1901)
Degree Days  
Heating Degree Days 0 2  
Month to date heating degree days 0 18  
Since 1 July heating degree days 0 20  
Cooling Degree Days 16 4  
Month to date cooling degree days 211 121  
Year to date cooling degree days 1334 1294  
Growing Degree Days 30 (Base 50)    
Moisture  
Dew Point 69 °F    
Average Humidity 73    
Maximum Humidity 90    
Minimum Humidity 56    
Precipitation  
Precipitation 0.00 in 0.17 in 1.86 in (1905)
Month to date precipitation 1.34 2.81  
Year to date precipitation 43.38 30.21  
Snow  
Snow 0.00 in 0.00 in 0.00 in ()
Month to date snowfall 0.0 0.0  
Since 1 July snowfall 0.0 0.0  
Since 1 September snowfall 0.0 0.0  
Snow Depth 0.00 in    
Sea Level Pressure  
Sea Level Pressure 29.94 in    
Wind  
Wind Speed 9 mph (South)    
Max Wind Speed 17 mph    
Max Gust Speed 23 mph    
Visibility 10 miles    
Events      
T = Trace of Precipitation, MM = Missing Value Source: NWS Daily Summary

Daily Weather History Graph

Daily Weather History Graph

Search for Another Location

Airport or City:

Astronomy

Sep. 18, 2019 Rise Set
Actual Time 7:02 AM CDT 7:22 PM CDT
Civil Twilight 6:35 AM CDT 7:49 PM CDT
Nautical Twilight 6:04 AM CDT 8:20 PM CDT
Astronomical Twilight 5:32 AM CDT 8:53 PM CDT
Moon 9:58 PM CDT (9/18) 11:05 AM CDT (9/18)
Length of Visible Light 13h 13m
Length of Day
12h 20m
Waning Gibbous, 82% of the Moon is Illuminated
Sep 18
Waning Gibbous
Sep 21
Last Quarter
Sep 28
New
Oct 5
First Quarter
Oct 13
Full

Hourly Weather History & Observations

Time (CDT) Temp. Heat Index Dew Point Humidity Pressure Visibility Wind Dir Wind Speed Gust Speed Precip Events Conditions
12:53 AM 73.9 °F - 68.0 °F 82% 29.94 in 10.0 mi SE 8.1 mph - N/A   Scattered Clouds
1:53 AM 72.0 °F - 66.9 °F 84% 29.95 in 10.0 mi SSE 5.8 mph - N/A   Clear
2:53 AM 72.0 °F - 66.0 °F 81% 29.95 in 10.0 mi SSE 6.9 mph - N/A   Mostly Cloudy
3:53 AM 71.1 °F - 66.0 °F 84% 29.94 in 10.0 mi SE 8.1 mph - N/A   Mostly Cloudy
4:53 AM 72.0 °F - 66.9 °F 84% 29.93 in 10.0 mi SSE 8.1 mph - N/A   Scattered Clouds
5:53 AM 72.0 °F - 66.9 °F 84% 29.93 in 10.0 mi SSE 8.1 mph - N/A   Clear
6:53 AM 70.0 °F - 66.0 °F 87% 29.94 in 10.0 mi South 8.1 mph - N/A   Partly Cloudy
7:53 AM 73.0 °F - 66.9 °F 81% 29.94 in 9.0 mi South 9.2 mph - N/A   Partly Cloudy
8:53 AM 77.0 °F - 69.1 °F 76% 29.95 in 10.0 mi South 9.2 mph - N/A   Partly Cloudy
9:53 AM 80.1 °F 83.6 °F 71.1 °F 74% 29.96 in 10.0 mi South 9.2 mph - N/A   Partly Cloudy
10:53 AM 84.0 °F 89.6 °F 72.0 °F 67% 29.96 in 10.0 mi SSW 9.2 mph - N/A   Partly Cloudy
12:53 PM 89.1 °F 96.0 °F 72.0 °F 57% 29.97 in 9.0 mi SSW 12.7 mph - N/A   Partly Cloudy
1:53 PM 89.1 °F 95.0 °F 71.1 °F 55% 29.96 in 10.0 mi SSW 13.8 mph 21.9 mph N/A   Scattered Clouds
3:53 PM 89.1 °F 95.0 °F 71.1 °F 55% 29.93 in 10.0 mi South 12.7 mph - N/A   Scattered Clouds
4:53 PM 89.1 °F 95.0 °F 71.1 °F 55% 29.92 in 10.0 mi SSW 10.4 mph - N/A   Scattered Clouds
5:53 PM 86.0 °F 91.5 °F 71.1 °F 61% 29.92 in 10.0 mi South 9.2 mph - N/A   Partly Cloudy
6:53 PM 81.0 °F 85.2 °F 72.0 °F 74% 29.92 in 10.0 mi South 6.9 mph - N/A   Clear
7:53 PM 77.0 °F - 69.1 °F 76% 29.94 in 10.0 mi SSE 6.9 mph - N/A   Clear
8:53 PM 75.0 °F - 68.0 °F 79% 29.96 in 10.0 mi SSE 6.9 mph - N/A   Clear
9:53 PM 77.0 °F - 68.0 °F 74% 29.96 in 10.0 mi SSE 6.9 mph - N/A   Clear
10:53 PM 75.0 °F - 68.0 °F 79% 29.96 in 9.0 mi SSE 8.1 mph - N/A   Clear
11:53 PM 75.0 °F - 68.0 °F 79% 29.95 in 10.0 mi SSE 5.8 mph - N/A   Clear